カタログに戻る

FENGYUN 1C DEB

運用中SSO
NORAD 31182·DEBRIS·🇨🇳 China

打ち上げ May 10, 1999 から Taiyuan Satellite Launch Center

Loading…

次のパス (今後24時間)

TLE

最新Source: Space-Track

元期: Sep 14, 2026, 05:16 UTC

1 31182U 99025BJL 26257.21963145  .00000356  00000-0  20603-3 0  9991
2 31182  98.7045 243.9302 0024137  71.8696 353.1824 14.14888105999763

AllMySatでFENGYUN 1C DEBをリアルタイム追跡

Download on the App Store